User: anonymous   Login
Location: Unspecified
(0.0000°N, 0.0000°E)
Time: 05:22:24
(UTC+02:00)
Language:

Meteor PRIRODA - Orbit

View from above orbital plane
View from above orbital plane
View from above satellite
View from above satellite

Ground track
Ground track

The orbit data is extracted from the following two-line orbital elements,

1 12585U 81065A   15215.89979117  .00002240  00000-0  11343-3 0  9999
2 12585 097.3528 198.5731 0013909 268.2357 121.8423 15.17928039858520
Epoch (UTC): 03 August 2015 21:35:41
Eccentricity: 0.0013909
inclination: 97.3528°
perigee height: 502 km
apogee height: 521 km
right ascension of ascending node: 198.5731°
argument of perigee: 268.2357°
revolutions per day: 15.17928039
mean anomaly at epoch: 121.8423°
orbit number at epoch: 85852

The dashed part of the orbit path shows where the satellite is in the earth's shadow,  

DLR